Terug naar catalogus

STARLINK-31669

ActiefCommunicatieVLEO
NORAD 59515·PAYLOAD·🇺🇸 United States

Gelanceerd Apr 17, 2024 vanaf Cape Canaveral Space Force Station

Loading…

Volgende Passages (komende 24 uur)

TLE

VersSource: CelesTrak SupGP

Epoch: Sep 15, 2026, 03:12 UTC

1 59515C 24073E   26258.13381944  .00045271  00000+0  16394-2 0  2588
2 59515  43.0005 327.9032 0001347 259.8144  20.6019 15.27562834    15

Volg STARLINK-31669 in realtime met AllMySat

Download on the App Store